Weather in Levoberezhnoye

Russia / Chechen Republic     43°34′18″N   45°37′55″E
temp.,
°C
wind,
m/s
gust,
m/s
humid.,
%
clouds,
%
prec.,
mm/h
press.,
hPa
HPBL,
m
28 february, sun
sun2800:00+6sw127969 0.0 101622
03:00+6ene117969 0.0 101622
06:00+4wnw228986 0.0 101643
09:00+5wsw368993 0.0 1016264
12:00+5w2389100 0.2 1015304
15:00+5wnw3694100 0.6 1015331
18:00+4wnw3695100 0.2 1017175
21:00+4wnw3596100 0.4 1018221
1 march, mon
mon100:00+3nnw3597100 2.0 1019276
03:00+3nnw3697100 3.0 1020298
06:00+2nnw2497100 0.3 1021243
09:00+2nw2295100 0.7 1023200
12:00+2w2394100 0.4 1024245
15:00+5w2273100 0.4 1024643
18:00+4sw227681 0.0 102652
21:00+3sw128584 0.1 102823
2 march, tue
tue200:00+2w1181100 0.0 102822
03:000wnw238883 0.0 102830
06:000w22880 0.0 102824
09:00+4sw12717 0.0 1028323
12:00+7sw11556 0.0 1026898
15:00+8w11483 0.0 10241275
18:00+6w115710 0.0 102330
21:00+4w23685 0.0 102449
3 march, wed
wed300:00+3wnw347359 0.0 102394
03:00+3w237380 0.0 102249
06:00+3wsw3678100 0.0 1022442
09:00+3wsw3687100 0.4 1021573
12:00+6wnw5661100 0.0 1020955
15:00+6wnw5870100 0.3 1019894
18:00+4w5891100 0.6 1020576
21:00+3w6994100 1.4 1022579
4 march, thu
thu400:00+2wnw71094100 1.5 1023751
03:00+1w4107599 1.6 1025700
06:00+1w51074100 0.0 1027577
09:00+3w686086 0.0 10281205
12:00+5wnw574822 0.0 10281423
15:00+7wnw463911 0.0 10271525
18:00+4nw12490 0.0 102858
21:00+3se01550 0.0 102922